K3RTA-2 Weather Reports


Display with metric or nautical units.
time (UTC)temp
F
wind
direction
speed
MPH
gust
MPH
rain 1hr
in
rain 24hr
in
rain mn
in
humidity
%
barometer
mb
20260906052504 64 46 0.0 0.0 0.00 0.00 0.00 97 1011.7
20260906051504 64 46 0.0 0.0 0.00 0.00 0.00 97 1011.8
20260906050504 64 46 0.0 0.0 0.00 0.00 0.00 97 1011.8
20260906050004 65 46 0.0 0.0 0.00 0.00 0.00 97 1011.9
20260906045004 65 46 0.0 0.0 0.00 0.00 0.00 97 1011.9
20260906044504 65 46 0.0 0.0 0.00 0.00 0.00 97 1012.0
20260906044005 65 46 0.0 0.0 0.00 0.00 0.00 97 1011.9
20260906043504 65 46 0.0 0.0 0.00 0.00 0.00 96 1011.9
20260906042504 65 46 0.0 0.0 0.00 0.00 0.00 96 1012.0
20260906042004 65 46 0.0 0.0 0.00 0.00 0.00 96 1012.0
20260906041504 65 46 0.0 0.0 0.00 0.00 0.00 96 1012.0
20260906041004 65 46 0.0 0.0 0.00 0.00 0.00 96 1012.0
20260906040504 65 46 0.0 0.0 0.00 0.00 0.00 96 1012.1
20260906040004 66 46 0.0 0.0 0.00 0.00 0.00 96 1012.0
20260906035504 66 46 0.0 0.0 0.00 0.00 0.00 96 1012.1
20260906035004 66 46 0.0 0.0 0.00 0.00 0.00 96 1012.1
20260906034504 66 46 0.0 0.0 0.00 0.00 0.00 96 1012.2
20260906034004 66 46 0.0 0.0 0.00 0.00 0.00 96 1012.1
20260906032505 66 46 0.0 0.0 0.00 0.00 0.00 96 1012.2
20260906032004 66 46 0.0 0.0 0.00 0.00 0.00 96 1012.1
20260906031004 66 46 0.0 0.0 0.00 0.00 0.00 96 1012.2
20260906030504 66 46 0.0 0.0 0.00 0.00 0.00 96 1012.2
20260906030004 66 46 0.0 0.0 0.00 0.00 0.00 96 1012.2
20260906025504 66 46 0.0 0.0 0.00 0.00 0.00 96 1012.1
20260906024004 67 46 0.0 0.0 0.00 0.00 0.00 95 1012.2
20260906023504 67 46 0.0 0.0 0.00 0.00 0.00 95 1012.1
20260906023005 67 46 0.0 0.0 0.00 0.00 0.00 95 1012.1
20260906022504 67 46 0.0 0.0 0.00 0.00 0.00 95 1012.0
20260906022004 67 46 0.0 0.0 0.00 0.00 0.00 95 1012.0
20260906021004 67 46 0.0 0.0 0.00 0.00 0.00 95 1011.9
20260906020504 68 46 0.0 0.0 0.00 0.00 0.00 95 1011.9
20260906015504 68 46 0.0 0.0 0.00 0.00 0.00 95 1011.7
20260906015004 68 46 0.0 0.0 0.00 0.00 0.00 94 1011.7
20260906014505 68 46 0.0 0.0 0.00 0.00 0.00 94 1011.6
20260906014004 68 46 0.0 0.0 0.00 0.00 0.00 94 1011.6
20260906013503 68 46 0.0 0.0 0.00 0.00 0.00 94 1011.6
20260906013005 69 46 0.0 0.0 0.00 0.00 0.00 94 1011.4
20260906012504 69 46 0.0 0.0 0.00 0.00 0.00 94 1011.4
20260906012004 69 46 0.0 0.0 0.00 0.00 0.00 94 1011.4
20260906011005 69 46 0.0 0.0 0.00 0.00 0.00 93 1011.3
20260906010504 69 46 0.0 0.0 0.00 0.00 0.00 93 1011.4
20260906010004 69 46 0.0 0.0 0.00 0.00 0.00 93 1011.4
20260906005504 69 46 0.0 0.0 0.00 0.00 0.00 93 1011.4
20260906005004 69 46 0.0 0.0 0.00 0.00 0.00 93 1011.4
20260906004503 69 45 0.0 0.0 0.00 0.00 0.00 93 1011.4
20260906004004 70 45 0.0 0.0 0.00 0.00 0.00 93 1011.3
20260906003505 70 45 0.0 0.0 0.00 0.00 0.00 93 1011.2
20260906003004 70 45 0.0 0.0 0.00 0.00 0.00 93 1011.2
20260906002005 70 45 0.0 0.0 0.00 0.00 0.00 92 1010.9
20260906001505 70 45 0.0 1.0 0.00 0.00 0.00 91 1010.9
20260906000504 71 45 0.0 0.0 0.00 0.00 0.00 90 1010.6
20260905234504 72 45 0.0 0.0 0.00 0.00 0.00 89 1010.7
20260905234004 72 45 0.0 0.0 0.00 0.00 0.00 89 1010.6
20260905233004 72 45 0.0 0.0 0.00 0.00 0.00 87 1010.7
20260905232004 73 45 0.0 0.0 0.00 0.00 0.00 85 1010.7
20260905231505 73 45 0.0 0.0 0.00 0.00 0.00 85 1010.6
20260905231005 74 45 0.0 0.0 0.00 0.00 0.00 84 1010.6
20260905230504 74 45 0.0 0.0 0.00 0.00 0.00 82 1010.6
20260905230005 75 45 0.0 0.0 0.00 0.00 0.00 81 1010.7
20260905225504 75 45 0.0 0.0 0.00 0.00 0.00 80 1010.7
20260905225004 75 45 0.0 0.0 0.00 0.00 0.00 80 1010.5
20260905224504 76 44 0.0 0.0 0.00 0.00 0.00 79 1010.5
20260905224004 76 45 0.0 0.0 0.00 0.00 0.00 78 1010.5
20260905223505 76 45 0.0 1.0 0.00 0.00 0.00 78 1010.5
20260905222504 77 82 1.0 3.0 0.00 0.00 0.00 75 1010.4
20260905222004 77 15 0.0 2.0 0.00 0.00 0.00 75 1010.4
20260905221504 77 20 1.0 2.0 0.00 0.00 0.00 74 1010.5
20260905221004 77 37 1.0 3.0 0.00 0.00 0.00 75 1010.4
20260905220504 78 40 1.0 3.0 0.00 0.00 0.00 74 1010.4
20260905220004 78 51 1.0 6.0 0.00 0.00 0.00 73 1010.3
20260905215504 78 50 2.0 6.0 0.00 0.00 0.00 73 1010.4
20260905215005 78 21 1.0 6.0 0.00 0.00 0.00 73 1010.3
20260905214504 78 58 1.0 3.0 0.00 0.00 0.00 73 1010.2
20260905214005 79 33 1.0 7.0 0.00 0.00 0.00 71 1010.2
20260905213504 79 30 2.0 7.0 0.00 0.00 0.00 70 1010.0
20260905213004 79 55 1.0 5.0 0.00 0.00 0.00 71 1009.9
20260905212504 79 12 1.0 5.0 0.00 0.00 0.00 70 1010.1
20260905212004 79 45 2.0 6.0 0.00 0.00 0.00 72 1010.0
20260905211004 79 66 1.0 5.0 0.00 0.00 0.00 74 1009.8
20260905210504 78 42 1.0 5.0 0.00 0.00 0.00 76 1009.7
20260905210004 78 39 2.0 5.0 0.00 0.00 0.00 75 1009.7
20260905205504 78 41 1.0 7.0 0.00 0.00 0.00 75 1009.7
20260905204504 78 21 3.0 9.0 0.00 0.00 0.00 74 1009.6
20260905204005 79 52 3.0 9.0 0.00 0.00 0.00 73 1009.6
20260905203504 79 355 1.0 3.0 0.00 0.00 0.00 69 1009.6
20260905203005 80 336 1.0 3.0 0.00 0.00 0.00 71 1009.7
20260905202504 79 16 0.0 5.0 0.00 0.00 0.00 71 1009.7
20260905202004 79 7 2.0 5.0 0.00 0.00 0.00 71 1009.7
20260905201005 80 24 2.0 5.0 0.00 0.00 0.00 70 1009.7
20260905200505 80 25 0.0 6.0 0.00 0.00 0.00 70 1009.8
20260905195505 81 21 2.0 6.0 0.00 0.00 0.00 69 1009.9
20260905195004 81 348 0.0 5.0 0.00 0.00 0.00 70 1009.9
20260905194005 81 44 0.0 2.0 0.00 0.00 0.00 69 1010.0
20260905193504 80 351 0.0 3.0 0.00 0.00 0.00 68 1010.3
20260905193005 80 314 0.0 3.0 0.00 0.00 0.00 69 1010.4
20260905192504 80 350 1.0 5.0 0.00 0.00 0.00 69 1010.6
20260905192004 80 27 0.0 5.0 0.00 0.00 0.00 69 1010.6
20260905191004 80 359 2.0 7.0 0.00 0.00 0.00 68 1010.6
20260905190504 80 326 1.0 6.0 0.00 0.00 0.00 68 1010.6
20260905190004 81 351 3.0 6.0 0.00 0.00 0.00 67 1010.6
20260905185504 81 0 2.0 6.0 0.00 0.00 0.00 67 1010.6
20260905185004 81 333 1.0 3.0 0.00 0.00 0.00 67 1010.7
20260905184005 81 82 0.0 5.0 0.00 0.00 0.00 69 1011.0
20260905183505 80 335 1.0 5.0 0.00 0.00 0.00 68 1011.0
20260905182504 80 76 1.0 8.0 0.00 0.00 0.00 69 1011.1
20260905182004 80 16 2.0 6.0 0.00 0.00 0.00 70 1011.2
20260905181504 80 35 0.0 6.0 0.00 0.00 0.00 72 1011.1
20260905181005 79 28 0.0 5.0 0.00 0.00 0.00 73 1011.1
20260905180004 80 29 0.0 6.0 0.00 0.00 0.00 72 1011.1
20260905175505 80 20 2.0 6.0 0.00 0.00 0.00 71 1011.0
20260905175004 80 52 1.0 6.0 0.00 0.00 0.00 70 1011.1
20260905174504 80 2 2.0 7.0 0.00 0.00 0.00 72 1011.1
20260905174004 80 32 2.0 7.0 0.00 0.00 0.00 73 1011.2
20260905173504 80 15 3.0 6.0 0.00 0.00 0.00 71 1011.2
20260905172505 80 29 1.0 5.0 0.00 0.00 0.00 74 1011.2
20260905172005 80 323 2.0 5.0 0.00 0.00 0.00 72 1011.2
20260905171504 79 7 1.0 8.0 0.00 0.00 0.00 73 1011.2
20260905171004 79 18 4.0 8.0 0.00 0.00 0.00 71 1011.4
20260905170504 79 8 2.0 8.0 0.00 0.00 0.00 72 1011.5
20260905170004 79 5 3.0 12.0 0.00 0.00 0.00 73 1011.5
20260905165504 79 39 5.0 12.0 0.00 0.00 0.00 72 1011.4
20260905164504 78 39 2.0 7.0 0.00 0.00 0.00 73 1011.5
20260905164004 78 24 1.0 12.0 0.00 0.00 0.00 73 1011.6
20260905163504 78 35 3.0 12.0 0.00 0.00 0.00 72 1011.5
20260905163003 78 84 3.0 10.0 0.00 0.00 0.00 74 1011.5
20260905162504 78 7 5.0 10.0 0.00 0.00 0.00 73 1011.5
20260905161504 79 51 2.0 7.0 0.00 0.00 0.00 75 1011.5
20260905161005 78 21 3.0 7.0 0.00 0.00 0.00 73 1011.6
20260905160504 79 32 3.0 7.0 0.00 0.00 0.00 73 1011.7
20260905155504 78 13 3.0 10.0 0.00 0.00 0.00 72 1011.7
20260905155005 78 33 3.0 10.0 0.00 0.00 0.00 73 1011.8
20260905154504 79 49 4.0 10.0 0.00 0.00 0.00 73 1012.0
20260905154004 79 47 2.0 12.0 0.00 0.00 0.00 75 1011.9
20260905153004 78 24 5.0 12.0 0.00 0.00 0.00 73 1011.8
20260905152504 78 39 3.0 7.0 0.00 0.00 0.00 75 1011.9
20260905152004 78 10 3.0 8.0 0.00 0.00 0.00 75 1011.9
20260905151504 78 19 2.0 8.0 0.00 0.00 0.00 74 1011.8
20260905151004 78 48 3.0 7.0 0.00 0.00 0.00 74 1011.8
20260905150504 78 42 3.0 7.0 0.00 0.00 0.00 72 1012.0
20260905150004 78 2 3.0 7.0 0.00 0.00 0.00 73 1012.0
20260905145504 77 7 2.0 7.0 0.00 0.00 0.00 77 1012.0
20260905145004 78 36 2.0 7.0 0.00 0.00 0.00 78 1012.0
20260905144504 77 23 3.0 12.0 0.00 0.00 0.00 75 1012.0
20260905144004 77 38 2.0 12.0 0.00 0.00 0.00 76 1011.8
20260905143004 77 26 3.0 12.0 0.00 0.00 0.00 76 1011.8
20260905142504 77 31 3.0 12.0 0.00 0.00 0.00 75 1011.8
20260905141504 77 16 2.0 10.0 0.00 0.00 0.00 77 1011.4
20260905141004 77 32 3.0 9.0 0.00 0.00 0.00 78 1011.4
20260905140504 78 22 2.0 7.0 0.00 0.00 0.00 78 1011.5
20260905140004 78 43 2.0 7.0 0.00 0.00 0.00 76 1011.4
20260905135005 78 37 3.0 8.0 0.00 0.00 0.00 77 1011.2
20260905134504 78 51 2.0 7.0 0.00 0.00 0.00 76 1011.2
20260905100004 72 27 0.0 1.0 0.00 0.00 0.00 97 1009.5
20260905095504 72 26 0.0 1.0 0.00 0.00 0.00 97 1009.5
20260905095004 72 26 0.0 0.0 0.00 0.00 0.00 97 1009.5
20260905094505 72 26 0.0 0.0 0.00 0.00 0.00 97 1009.5
20260905094004 72 26 0.0 0.0 0.00 0.00 0.00 97 1009.6
20260905093504 72 26 0.0 0.0 0.00 0.00 0.00 97 1009.6
20260905093004 72 26 0.0 0.0 0.00 0.00 0.00 97 1009.6
20260905092504 72 26 0.0 0.0 0.00 0.00 0.00 97 1009.6
20260905092004 72 26 0.0 0.0 0.00 0.00 0.00 97 1009.6
20260905091504 72 26 0.0 0.0 0.00 0.00 0.00 97 1009.7
20260905091004 73 26 0.0 0.0 0.00 0.00 0.00 97 1009.7
20260905090503 73 26 0.0 0.0 0.00 0.00 0.00 97 1009.6
20260905090004 73 26 0.0 0.0 0.00 0.00 0.00 97 1009.7
20260905085504 73 26 0.0 0.0 0.00 0.00 0.00 97 1009.6
20260905085004 73 26 0.0 0.0 0.00 0.00 0.00 97 1009.5
20260905084504 73 26 0.0 0.0 0.00 0.00 0.00 97 1009.5
20260905084004 73 26 0.0 0.0 0.00 0.00 0.00 97 1009.5
20260905083504 73 26 0.0 0.0 0.00 0.00 0.00 96 1009.5
20260905082004 74 25 0.0 0.0 0.00 0.00 0.00 96 1009.7
20260905081504 74 25 0.0 0.0 0.00 0.00 0.00 96 1009.6
20260905081005 74 25 0.0 0.0 0.00 0.00 0.00 96 1009.6
20260905080505 74 25 0.0 0.0 0.00 0.00 0.00 96 1009.6
20260905080004 74 25 0.0 0.0 0.00 0.00 0.00 96 1009.7
20260905075505 74 25 0.0 0.0 0.00 0.00 0.00 96 1009.7
20260905075004 74 25 0.0 0.0 0.00 0.00 0.00 96 1009.8
20260905074504 74 25 0.0 0.0 0.00 0.00 0.00 96 1009.7
20260905074004 75 25 0.0 0.0 0.00 0.00 0.00 96 1009.7
20260905072504 75 25 0.0 1.0 0.00 0.01 0.00 95 1009.8
20260905072004 75 25 0.0 2.0 0.00 0.01 0.00 95 1009.9
20260905070503 76 20 1.0 5.0 0.00 0.02 0.00 95 1010.1
20260905065504 76 24 2.0 8.0 0.00 0.04 0.00 94 1010.2
20260905065005 76 25 0.0 3.0 0.00 0.05 0.00 94 1010.1
20260905064505 76 350 1.0 3.0 0.00 0.07 0.00 94 1010.0
20260905063504 76 313 0.0 2.0 0.00 0.11 0.00 94 1010.0
20260905063003 76 25 0.0 2.0 0.00 0.12 0.00 94 1010.1
20260905062504 76 55 0.0 3.0 0.00 0.13 0.00 94 1010.2
20260905062004 76 311 1.0 3.0 0.00 0.14 0.00 94 1010.2
20260905061504 76 62 1.0 2.0 0.00 0.14 0.00 94 1010.2
20260905061004 76 121 0.0 2.0 0.00 0.15 0.00 94 1010.3
20260905060504 76 50 0.0 1.0 0.00 0.15 0.00 94 1010.3
20260905060004 76 49 0.0 1.0 0.00 0.16 0.00 95 1010.2
20260905055504 76 96 0.0 1.0 0.00 0.20 0.00 95 1010.2
20260905055003 77 59 0.0 1.0 0.00 0.26 0.00 95 1010.2
20260905054004 77 13 0.0 2.0 0.00 0.53 0.00 95 1010.3
20260905053505 77 101 0.0 2.0 0.00 0.69 0.00 95 1010.3
20260905053005 76 71 0.0 2.0 0.00 0.69 0.00 95 1010.4